Regional Weather Roundup
Issued by NWS Upton, NY

Current Version | Previous Version | Graphics & Text | Print | Product List | Glossary Off
Versions: 1 2 3 4 5 6 7 8 9 10 11 12 13 14 15 16 17 18 19 20 21 22 23 24 25 26 27 28 29 30 31 32 33 34 35 36 37 38 39 40 41 42 43 44 45 46 47 48 49 50

199
ASUS41 KOKX 230909
RWROKX

REGIONAL WEATHER ROUNDUP
NATIONAL WEATHER SERVICE NEW YORK NY
500 AM EDT SUN JUL 23 2017

NOTE: "FAIR" INDICATES FEW OR NO CLOUDS BELOW 12,000 FEET WITH NO
SIGNIFICANT WEATHER AND/OR OBSTRUCTIONS TO VISIBILITY.

NYZ071-072-176-178-NJZ106-104-231000-
NEW YORK CITY METRO AREA

CITY           SKY/WX    TMP DP  RH WIND       PRES   REMARKS
Central Park   CLOUDY    72  70  93 CALM      29.77S FOG
Bronx Bot Gard   N/A     72  70  94 SE2       29.77S
LaGuardia APRT LGT RAIN  73  71  93 CALM      29.74R
Kennedy INTL   CLOUDY    72  71  97 CALM      29.75R
Breezy Point     N/A     70 N/A N/A SE1         N/A
Newark/Liberty CLOUDY    70  69  97 CALM      29.75R
Teterboro      LGT RAIN  74  71  91 SW5       29.74R FOG
$$

NYZ177-179-078>081-231000-
LONG ISLAND NEW YORK

CITY           SKY/WX    TMP DP  RH WIND       PRES   REMARKS
Jones Beach      N/A     70 N/A N/A E3          N/A
Matinecock PT    N/A     72 N/A N/A S3          N/A
Farmingdale    LGT RAIN  72  67  84 CALM      29.75R
MacArthur/ISP  CLOUDY    71  66  84 CALM      29.75R
Shirley        CLOUDY    69  68  96 CALM      29.75R
Mt Sinai Harb    N/A     70 N/A N/A S1          N/A
Westhampton    CLOUDY    69  65  86 CALM        N/A
East Hampton   CLOUDY    69  67  93 CALM      29.73R
Montauk          N/A     70  67  90 NE5       29.74S
$$

NYZ052-065-067-231000-
HUDSON VALLEY

CITY           SKY/WX    TMP DP  RH WIND       PRES   REMARKS
White Plains   NOT AVBL
Larchmont Harb   N/A     72 N/A N/A S6          N/A
Croton O-T Hud   N/A     73 N/A N/A MISG        N/A
Newburgh       NOT AVBL
Montgomery     CLOUDY    71  67  87 NE5       29.76R
Poughkeepsie   CLOUDY    70  65  84 N3        29.75R
Albany         MOCLDY    64  58  80 N5        29.79R
$$

NJZ001-105-106-008-010-013-015-019>022-104-231000-
NEW JERSEY

CITY           SKY/WX    TMP DP  RH WIND       PRES   REMARKS
Newark/Liberty CLOUDY    70  69  97 CALM      29.75R
Teterboro      LGT RAIN  74  71  91 SW5       29.74R FOG
Caldwell       LGT RAIN  71  70  96 S3        29.76R FOG
Somerville     CLOUDY    72  71  97 CALM      29.74S FOG
Linden         CLOUDY    72  69  89 CALM      29.75S
Perth Amboy      N/A     72 N/A N/A N3          N/A
Sussex         LGT RAIN  70  68  93 NE3       29.76R
Andover          N/A     70  68  93 CALM      29.78R
Trenton        CLOUDY    72  71  97 E6        29.74S FOG
Millville      CLOUDY    75  75 100 W6        29.75R
Atlantic City  CLOUDY    77  73  87 SW8       29.74S
Wrightstown    MOCLDY    72  72 100 SW1       29.73R FOG
Toms River     CLOUDY    74  73  97 N3        29.75R
Belmar         CLOUDY    71  70  96 NE5       29.76R
$$

PAZ047>061-062-071-231000-
EASTERN PENNSYLVANIA

CITY           SKY/WX    TMP DP  RH WIND       PRES   REMARKS
Philadelphia   CLOUDY    78  72  81 W12       29.75R
Allentown      LGT RAIN  72  69  90 NE8       29.76S FOG
Scranton       CLOUDY    70  68  93 CALM      29.78R
$$

CTZ002-004>006-009-010-012-RIZ004-006-007-MAZ004-011-015-231000-
SOUTHERN NEW ENGLAND
 IN CT

CITY           SKY/WX    TMP DP  RH WIND       PRES   REMARKS
Bradley INTL   MOCLDY    69  63  81 N7        29.76R
Hartford       CLOUDY    72  64  76 N6        29.74S
Danbury        CLOUDY    72  67  84 CALM      29.76R
Wtrbury/Oxford CLOUDY    70  57  64 NE8       29.75S
Bridgeport     CLOUDY    74  67  78 NE3       29.73R
Meriden        CLOUDY    72  64  76 NW3       29.74R
New Haven      CLOUDY    74  67  78 CALM      29.74R
Chester        FAIR      72  66  83 CALM      29.75R
Groton         CLOUDY    72  65  78 N6        29.72S
Wilimantic     CLOUDY    72  69  90 N3        29.74S

 IN RI

CITY           SKY/WX    TMP DP  RH WIND       PRES   REMARKS
Providence     CLOUDY    73  67  81 N5        29.74S
Block Island   MOCLDY    71  70  96 NE5       29.74S FOG
Westerly       CLOUDY    71  65  81 E5        29.73S
 IN MA

CITY           SKY/WX    TMP DP  RH WIND       PRES   REMARKS
Boston         CLOUDY    70  54  56 NE23G32   29.77R
Worcester      CLOUDY    67  58  72 NE12      29.79S
Westfield      CLOUDY    67  63  87 N6        29.76R
Provincetown   CLOUDY    69  66  90 NE8       29.75S
Nantucket      CLOUDY    66  66 100 NE3       29.74S FOG
$$

ANZ330-335-338-340-345-350-353-355-231000-
COASTAL MARINE OBSERVATIONS


STATION/POSITION TIME  SKY/WX   TEMP    WIND        PRES    VSBY  WAVE
                                AIR SEA DIR/SP/G                  HT/PER
                 (UTC)          (F)     (DEG/KT/KT) (MB)    (MI)  (FT/S)
NY HARB ENTRANCE 0750            72 76   70/ 12/ 12 1006.1          3/10
20 S FIRE ISLAND 0850            72 77   60/ 14/ 16 1006.3          3/ 6
GREAT SOUTH BAY  0830            72 82  120/  8/ 14   N/A
23 SSW MONTAUK P 0750            70 75              1006.5          2/ 5
15 E BARNEGAT LI 0830               77                N/A           4/ 7
HUDSON CANYON    0750            80 80  260/ 23/ 29 1005.1          4/ 7
KINGS POINT      0830            72 74  250/  4/  5 1007.0
EXECUTION ROCKS  0845            73     200/  8/  8   N/A
CENTRAL LI SOUND 0830            74      60/  6/  8   N/A           0
EASTERN LI SOUND NOT AVBL
ROBBINS REEF     0836                   140/  4/  5 1007.7
$$


>>>>>>>>>>>>>>>>>>>>>>>>>>>> KEY <<<<<<<<<<<<<<<<<<<<<<<<<<<
>                                                          <
>     SKY/WX - Sky Condition/Present Weather               <
>     TMP    - Temperature in Fahrenheit                   <
>     DP     - Dew Point in Fahrenheit                     <
>     RH     - Relative Humidity in Percent                <
>     WIND   - Direction (from) and Speed in MPH           <
>     PRES   - Mean Sea Level Pressure (inches of Hg)      <
>     WCI    - Wind Chill Index                            <
>     VSB    - VISIBILITY IN MILES                         <
>     HX     - HEAT INDEX                                  <
>     TC     - TEMPERATURE IN CELSIUS                      <
>     VRB    - VARIABLE WIND DIRECTION                     <
>                                                          <
>>>>>>>>>>>>>>>>>>>>>>>>>>>> KEY <<<<<<<<<<<<<<<<<<<<<<<<<<<




USA.gov is the U.S. government's official web portal to all federal, state and local government web resources and services.